TimeEST,TemperatureF,Dew PointF,Humidity,Sea Level PressureIn,VisibilityMPH,Wind Direction,Wind SpeedMPH,Gust SpeedMPH,PrecipitationIn,Events,Conditions,WindDirDegrees,DateUTC
12:54 AM,37.9,27.0,65,30.22,10.0,Calm,Calm,-,N/A,,Mostly Cloudy,0,2012-12-12 05:54:00
1:54 AM,36.0,28.0,73,30.25,10.0,Calm,Calm,-,N/A,,Overcast,0,2012-12-12 06:54:00
2:54 AM,36.0,28.0,73,30.27,10.0,NNW,4.6,-,N/A,,Overcast,330,2012-12-12 07:54:00
3:54 AM,34.0,28.9,82,30.29,10.0,Calm,Calm,-,N/A,,Overcast,0,2012-12-12 08:54:00
4:54 AM,35.1,28.9,78,30.31,10.0,Calm,Calm,-,N/A,,Overcast,0,2012-12-12 09:54:00
5:54 AM,34.0,28.9,82,30.32,10.0,Calm,Calm,-,N/A,,Overcast,0,2012-12-12 10:54:00
6:54 AM,35.1,28.0,76,30.35,10.0,NW,4.6,-,N/A,,Overcast,320,2012-12-12 11:54:00
7:54 AM,35.6,28.4,75,30.36,10.0,Variable,3.5,-,N/A,,Mostly Cloudy,0,2012-12-12 12:54:00
8:54 AM,37.9,30.0,73,30.38,10.0,Calm,Calm,-,N/A,,Overcast,0,2012-12-12 13:54:00
9:54 AM,42.1,27.0,55,30.40,10.0,North,5.8,-,N/A,,Overcast,350,2012-12-12 14:54:00
10:54 AM,44.1,26.1,49,30.41,10.0,NNE,8.1,-,N/A,,Mostly Cloudy,20,2012-12-12 15:54:00
11:54 AM,45.0,26.1,48,30.39,10.0,North,8.1,-,N/A,,Mostly Cloudy,360,2012-12-12 16:54:00
12:54 PM,44.1,25.0,47,30.38,10.0,Variable,6.9,-,N/A,,Mostly Cloudy,0,2012-12-12 17:54:00
1:54 PM,44.1,25.0,47,30.38,10.0,Variable,4.6,-,N/A,,Mostly Cloudy,0,2012-12-12 18:54:00
2:54 PM,45.0,25.0,46,30.37,10.0,NNE,3.5,-,N/A,,Mostly Cloudy,20,2012-12-12 19:54:00
3:54 PM,45.0,26.1,48,30.38,10.0,Variable,4.6,-,N/A,,Overcast,0,2012-12-12 20:54:00
4:54 PM,42.1,28.9,60,30.38,10.0,ENE,3.5,-,N/A,,Overcast,70,2012-12-12 21:54:00
5:54 PM,42.1,28.0,58,30.38,10.0,North,4.6,-,N/A,,Overcast,10,2012-12-12 22:54:00
6:54 PM,41.0,27.0,57,30.40,10.0,North,4.6,-,N/A,,Overcast,360,2012-12-12 23:54:00
7:54 PM,41.0,27.0,57,30.43,10.0,North,3.5,-,N/A,,Overcast,360,2012-12-13 00:54:00
8:54 PM,39.9,27.0,60,30.41,10.0,NNE,4.6,-,N/A,,Overcast,20,2012-12-13 01:54:00
9:54 PM,39.0,27.0,62,30.43,10.0,Calm,Calm,-,N/A,,Overcast,0,2012-12-13 02:54:00
10:54 PM,39.0,27.0,62,30.42,10.0,North,4.6,-,N/A,,Overcast,350,2012-12-13 03:54:00
11:54 PM,37.9,26.1,62,30.41,10.0,North,3.5,-,N/A,,Overcast,10,2012-12-13 04:54:00